Location: ???????
(38.3360°N, 23.6977°E)
Time: 05:12:56
(UTC+00:00)

Cosmos 540 Rocket - Pass Details

Date: 17 November 2025
Orbit: 735 x 747 km, 74.1° (Epoch: 09 December)

Event Time Altitude Azimuth Distance (km) Brightness Sun altitude
Rises 15:44:47 0° 350° (N) 3,194 6.6 -7.0°
Reaches altitude 10° 15:47:21 10° 359° (N) 2,265 5.8 -7.4°
Maximum altitude 15:52:02 35° 65° (ENE) 1,182 4.0 -8.3°
Drops below altitude 10° 15:56:41 10° 131° (SE) 2,244 5.6 -9.2°
Sets 15:59:12 0° 140° (SE) 3,161 6.5 -9.7°
